Sioux Falls, SD

7:27 PM CDT on April 23, 2018 (GMT -0500)
Foss

Weather History for KFSD - April, 2013

Change the Weather History Date:

Monday, April 29, 2013

  Actual Average Record
Temperature  
Mean Temperature 61 °F 52 °F  
Max Temperature 78 °F 65 °F 90 °F (2007)
Min Temperature 44 °F 40 °F 19 °F (1958)
Degree Days  
Heating Degree Days 4 13  
Month to date heating degree days 763 549  
Since 1 July heating degree days 7535 7394  
Cooling Degree Days 0 0  
Month to date cooling degree days 4 0  
Year to date cooling degree days 4 0  
Growing Degree Days 11 (Base 50)    
Moisture  
Dew Point 38 °F    
Average Humidity 41    
Maximum Humidity 69    
Minimum Humidity 20    
Precipitation  
Precipitation 0.00 in 0.11 in 1.16 in (1920)
Month to date precipitation 3.12 2.91  
Year to date precipitation 5.35 5.83  
Snow  
Snow 0.00 in 0.00 in 5.70 in (1950)
Month to date snowfall 14.8 4.5  
Since 1 July snowfall 41.8 44.4  
Snow Depth 0.00 in    
Sea Level Pressure  
Sea Level Pressure 29.69 in    
Wind  
Wind Speed 11 mph (ESE)    
Max Wind Speed 20 mph    
Max Gust Speed 29 mph    
Visibility 10 miles    
Events      
T = Trace of Precipitation, MM = Missing Value Source: NWS Daily Summary

Daily Weather History Graph

Daily Weather History Graph

Search for Another Location

Airport or City:

Astronomy

Apr. 29, 2013 Rise Set
Actual Time 6:21 AM CDT 8:27 PM CDT
Civil Twilight 5:50 AM CDT 8:58 PM CDT
Nautical Twilight 5:12 AM CDT 9:37 PM CDT
Astronomical Twilight 4:30 AM CDT 10:19 PM CDT
Moon 12:00 AM CDT (4/29) 9:41 AM CDT (4/29)
Length of Visible Light 15h 07m
Length of Day
14h 05m
Waning Gibbous, 80% of the Moon is Illuminated
Apr 29
Waning Gibbous
May 2
Last Quarter
May 9
New
May 17
First Quarter
May 24
Full

Hourly Weather History & Observations

Time (CDT) Temp. Windchill Dew Point Humidity Pressure Visibility Wind Dir Wind Speed Gust Speed Precip Events Conditions
12:56 AM 53.1 °F - 43.0 °F 69% 29.82 in 10.0 mi NNE 9.2 mph - N/A   Clear
1:56 AM 51.1 °F - 34.0 °F 52% 29.83 in 10.0 mi NNE 10.4 mph - N/A   Clear
2:56 AM 50.0 °F - 28.9 °F 44% 29.82 in 10.0 mi NNE 10.4 mph - N/A   Clear
3:56 AM 46.9 °F - 27.0 °F 46% 29.83 in 10.0 mi NNE 8.1 mph - N/A   Clear
4:56 AM 45.0 °F 40.1 °F 27.0 °F 49% 29.84 in 10.0 mi NE 9.2 mph - N/A   Partly Cloudy
5:56 AM 45.0 °F 40.1 °F 27.0 °F 49% 29.84 in 10.0 mi NE 9.2 mph - N/A   Mostly Cloudy
6:56 AM 44.1 °F 38.1 °F 27.0 °F 51% 29.83 in 10.0 mi NE 11.5 mph - N/A   Scattered Clouds
7:56 AM 48.0 °F - 28.9 °F 48% 29.83 in 10.0 mi ENE 11.5 mph - N/A   Partly Cloudy
8:56 AM 53.1 °F - 32.0 °F 45% 29.81 in 10.0 mi ENE 11.5 mph - N/A   Partly Cloudy
9:56 AM 57.9 °F - 36.0 °F 44% 29.78 in 10.0 mi ENE 10.4 mph - N/A   Clear
10:56 AM 62.1 °F - 39.0 °F 43% 29.75 in 10.0 mi East 5.8 mph - N/A   Clear
11:56 AM 66.0 °F - 42.1 °F 42% 29.72 in 10.0 mi East 11.5 mph - N/A   Clear
12:56 PM 69.1 °F - 42.1 °F 38% 29.69 in 10.0 mi East 8.1 mph - N/A   Clear
1:56 PM 72.0 °F - 41.0 °F 33% 29.67 in 10.0 mi ESE 8.1 mph - N/A   Clear
2:56 PM 75.0 °F - 41.0 °F 29% 29.64 in 10.0 mi SW 8.1 mph - N/A   Partly Cloudy
3:56 PM 77.0 °F - 42.1 °F 29% 29.60 in 10.0 mi South 9.2 mph - N/A   Partly Cloudy
4:56 PM 75.9 °F - 43.0 °F 31% 29.56 in 10.0 mi South 10.4 mph 20.7 mph N/A   Partly Cloudy
5:56 PM 77.0 °F - 44.1 °F 31% 29.54 in 10.0 mi South 16.1 mph - N/A   Clear
6:56 PM 73.9 °F - 41.0 °F 30% 29.53 in 10.0 mi South 12.7 mph - N/A   Partly Cloudy
7:56 PM 73.0 °F - 43.0 °F 34% 29.51 in 10.0 mi South 11.5 mph - N/A   Partly Cloudy
8:56 PM 72.0 °F - 44.1 °F 37% 29.48 in 10.0 mi SE 10.4 mph - N/A   Clear
9:56 PM 71.1 °F - 44.1 °F 38% 29.46 in 10.0 mi SSE 13.8 mph - N/A   Clear
10:56 PM 70.0 °F - 45.0 °F 41% 29.43 in 10.0 mi SSE 16.1 mph - N/A   Clear
11:56 PM 70.0 °F - 44.1 °F 39% 29.41 in 10.0 mi SSE 13.8 mph - N/A   Clear